Regional Weather Roundup
Issued by NWS Cleveland, OH

Home | Current Version | Previous Version | Text Only | Print | Product List | Glossary On
Versions: 1 2 3 4 5 6 7 8 9 10 11 12 13 14 15 16 17 18 19 20 21 22 23 24 25 26 27 28 29 30 31 32 33 34 35 36 37 38 39 40 41 42 43 44 45 46 47 48 49 50
000
ASUS41 KCLE 311412
RWRCLE
OHIO REGIONAL WEATHER ROUNDUP
NATIONAL WEATHER SERVICE WILMINGTON, OH
1000 AM EDT WED AUG 31 2016

NOTE: "FAIR" INDICATES FEW OR NO CLOUDS BELOW 12,000 FEET WITH NO
SIGNIFICANT WEATHER AND/OR OBSTRUCTIONS TO VISIBILITY.

OHZ001>008-015>018-024>027-034-035-043-044-311500-
   NORTHWEST OHIO

CITY           SKY/WX    TMP DP  RH WIND       PRES   REMARKS
DEFIANCE       CLOUDY    73  69  87 CALM      30.01F
FINDLAY        CLOUDY    72  68  87 W7        30.00F
TOLEDO EXPRESS PTSUNNY   72  71  97 W3        30.00F
TOLEDO EXEC    PTSUNNY   74  71  91 W5        30.00F
LIMA           CLOUDY    73  71  93 W5        30.02S
$$

OHZ009>014-019>023-028>033-038-089-311500-
   NORTHEAST OHIO

CITY           SKY/WX    TMP DP  RH WIND       PRES   REMARKS
CLE-HOPKINS    PTSUNNY   77  68  73 W7        30.01F
CLE-LAKEFRONT  FAIR      79  71  76 W12       29.97F
CUY CO. ARPT   PTSUNNY   79  73  83 W16       29.99F
LORAIN-ELYRIA  PTSUNNY   74  67  78 W5        30.00F
ASHTABULA      CLOUDY    70  70 100 CALM      30.01R
AKRON-CANTON   CLOUDY    74  65  73 W5        30.01F
WOOSTER        PTSUNNY   73  68  84 W5        30.02F
MANSFIELD      CLOUDY    74  67  78 W6        30.02F
YOUNGSTOWN     CLOUDY    72  64  76 CALM      30.00F
$$

OHZ042-051>053-060>062-070>072-077>081-311500-
  SOUTHWEST OHIO

CITY           SKY/WX    TMP DP  RH WIND       PRES   REMARKS
CINC-COVINGTON FAIR      76  71  85 N6        30.03F
CINC-LUNKEN    FAIR      77  72  84 E3        30.02F
HAMILTON       PTSUNNY   77  67  71 NW3       30.03F
DAYTON         FAIR      75  69  81 NW5       30.04S
WRIGHT-PAT AFB FAIR      76  71  84 CALM      30.02F
DAYTON GENERAL FAIR      77  67  71 VRB3      30.02F
WILMINGTON     FAIR      76  69  79 N6        30.03F
$$

OHZ036-037-039>041-045>050-054>059-063>069-073>076-082>088-311500-
  CENTRAL AND SOUTHEAST OHIO

CITY           SKY/WX    TMP DP  RH WIND       PRES   REMARKS
COLUMBUS       PTSUNNY   77  68  73 NE6       30.00F
OSU AIRPORT    FAIR      77  68  73 NW7       30.01F
BOLTON FIELD   SUNNY     75  70  83 NW3       30.02F
RICKENBACK AFB FAIR      75  69  81 CALM      30.01S
NEWARK         FAIR      77  67  71 CALM      30.01S
MARION         FAIR      76  68  76 VRB5      30.02F
LANCASTER      FAIR      76  68  76 N3        30.02S
ZANESVILLE     FAIR      72  64  76 CALM      30.02S
NEW PHILLY     PTSUNNY   75  63  66 CALM      30.01F
$$




USA.gov is the U.S. government's official web portal to all federal, state and local government web resources and services.